Regional Weather Roundup
Issued by NWS

Home | Current Version | Previous Version | Text Only | Print | Product List | Glossary Off
Versions: 1 2 3 4 5 6 7 8 9 10 11 12 13 14 15 16 17 18 19 20 21 22 23 24 25 26 27 28

000
ASUS45 KCYS 072210
RWRWY

WYOMING REGIONAL WEATHER ROUNDUP
NATIONAL WEATHER SERVICE CHEYENNE WY
300 PM MST WED DEC 07 2016

NOTE:  "FAIR" INDICATES FEW OR NO CLOUDS BELOW 12,000 FEET
WITH NO SIGNIFICANT WEATHER AND/OR OBSTRUCTIONS TO VISIBILITY.

WYZ001-072300-
YELLOWSTONE NATIONAL PARK

CITY           SKY/WX    TMP DP  RH WIND       PRES   REMARKS
LK YELLOWSTONE   N/A      7  -4  60 W7        30.08R WCI  -5
W YELLOWSTONE  NOT AVBL

$$
WYZ002>013-054>058-071-098>099-072300-
NORTHERN WYOMING

CITY           SKY/WX    TMP DP  RH WIND       PRES   REMARKS
JACKSON        FAIR      10   3  72 S3        30.16R
CODY           FAIR       8  -3  61 S3        30.31R
GREYBULL       CLOUDY    13   1  59 E8        30.38R WCI   2
WORLAND        PTSUNNY   12   1  61 N7        30.37R WCI   1
SHERIDAN       FAIR       5  -5  63 W9        30.40R WCI  -9
BUFFALO        FAIR       3  -7  63 CALM      30.31R
GILLETTE       CLOUDY     3  -4  72 W13       30.34R WCI -14
HULETT         CLOUDY     5  -4  66 MISG      30.34R
NEWCASTLE      FAIR       3  -6  66 NW16      30.36R WCI -16

$$
WYZ014>020-022>026-101>103-072300-
CENTRAL WYOMING

CITY           SKY/WX    TMP DP  RH WIND       PRES   REMARKS
BIG PINEY      FAIR      13   1  59 CALM      30.13R
PINEDALE       FAIR      10   0  61 MISG      30.14R
DUBOIS         FAIR       9  -4  56 SE3       30.07R
LANDER         FAIR      10  -1  61 CALM      30.23R
RIVERTON       CLOUDY    10   0  63 E5        30.25R WCI   2
CASPER         FAIR       4  -4  69 SW6       30.26R WCI  -7
DOUGLAS        FAIR       6  -3  66 NW9       30.30R WCI  -8

$$
WYZ021-027>030-104>119-072300-
SOUTHERN WYOMING

CITY           SKY/WX    TMP DP  RH WIND       PRES   REMARKS
EVANSTON       FAIR      15   1  53 W6        30.13R WCI   6
FORT BRIDGER   FAIR      17   3  54 W7        30.17R WCI   7
ROCK SPRINGS   FAIR      11   3  70 W6        30.15R WCI   1
DIXON          FAIR      15  -1  47 W6        30.20R WCI   7
RAWLINS        FAIR      10  -4  53 W6        30.14R WCI   0
SARATOGA       FAIR      10   0  61 N3        30.13R
LARAMIE        FAIR       3  -6  66 N9        30.08R WCI -12
CHEYENNE       FAIR       6  -4  63 N14       30.17R WCI -11
TORRINGTON     FAIR      11  -3  53 N16G22    30.32R WCI  -6
PINE BLUFFS    FAIR       9   0  66 N13G21    30.25R WCI  -7

$$




USA.gov is the U.S. government's official web portal to all federal, state and local government web resources and services.